Tracking 19199 objects as of 24-Jun-2018
HD Live streaming from Space Station
objects crossing your sky now

FENGYUN 1C DEB

Track FENGYUN 1C DEB now!
10-day predictions


NORAD ID: 31898
Int'l Code: 1999-025CKZ
Perigee: 605.3 km
Apogee: 896.6 km
Inclination: 98.6 °
Period: 99.7 minutes
Semi major axis: 7121 km
RCS: 0.0059 m2 (small)
Launch date: May 10, 1999
Source: People's Republic of China (PRC)
Launch site: Taiyaun Space Center, China (TSC)

Note: This is SATELLITE DEBRIS
aabbcc
Your satellite tracking list
Your tracking list is empty




NASA's NSSDC Master Catalog

Two Line Element Set (TLE):
1 31898U 99025CKZ 18175.09768347  .00000600  00000-0  14743-3 0  9998
2 31898  98.5711 279.0814 0204456 211.3141 147.5742 14.44453815582203
Source of the keplerian elements: AFSPC